When you browse on this site, cookies collect data to enhance your experience and personalize the content and advertising you see.
Visit our Privacy Policy to learn more. By continuing to use the site, you agree to this use of cookies and data.
  • In Portugal
  • List of Countries
  • For 7 days
  • Water Temperature
  • Weather Map
  • Weather Widgets
  • user-avatar
    Login

    Hourly Weather Sartykov

    Today, 30 May, Saturday

    Time Temperature Precipitation Wind Pressure Humidity
    00:00 +9°C° 0 mm 2 mps 736 mmHg 64%
    01:00 +9°C° 0 mm 2 mps 735 mmHg 64%
    02:00 +8°C° 0 mm 2 mps 734 mmHg 64%
    03:00 +8°C° 0 mm 2 mps 734 mmHg 64%
    04:00 +9°C° 0 mm 2 mps 733 mmHg 63%
    05:00 +9°C° 0 mm 2 mps 733 mmHg 61%
    06:00 +10°C° 0 mm 2 mps 732 mmHg 60%
    07:00 +12°C° 0.1 mm 2 mps 732 mmHg 60%
    08:00 +11°C° 0.1 mm 3 mps 732 mmHg 61%
    09:00 +11°C° 0.1 mm 3 mps 731 mmHg 61%
    10:00 +12°C° 0.4 mm 4 mps 731 mmHg 66%
    11:00 +11°C° 0.4 mm 6 mps 731 mmHg 71%
    12:00 +11°C° 0 mm 8 mps 731 mmHg 76%
    13:00 +14°C° 0 mm 7 mps 731 mmHg 70%
    14:00 +16°C° 0 mm 7 mps 730 mmHg 64%
    15:00 +19°C° 0 mm 6 mps 730 mmHg 57%
    16:00 +17°C° 0 mm 5 mps 730 mmHg 59%
    17:00 +18°C° 0 mm 4 mps 729 mmHg 60%
    18:00 +19°C° 0 mm 2 mps 729 mmHg 61%
    19:00 +17°C° 0.3 mm 2 mps 729 mmHg 66%
    20:00 +16°C° 0.3 mm 3 mps 729 mmHg 71%
    21:00 +13°C° 0.3 mm 3 mps 729 mmHg 76%
    22:00 +13°C° 0.5 mm 3 mps 729 mmHg 78%
    23:00 +13°C° 0.5 mm 3 mps 730 mmHg 80%

    Tomorrow, 31 May, Sunday

    Time Temperature Precipitation Wind Pressure Humidity
    00:00 +12°C° 0.5 mm 3 mps 730 mmHg 82%
    01:00 +12°C° 0.6 mm 4 mps 730 mmHg 83%
    02:00 +12°C° 0.6 mm 5 mps 730 mmHg 84%
    03:00 +12°C° 0.6 mm 5 mps 730 mmHg 86%
    04:00 +12°C° 0.3 mm 5 mps 731 mmHg 81%
    05:00 +12°C° 0.3 mm 5 mps 731 mmHg 76%
    06:00 +12°C° 0.3 mm 5 mps 731 mmHg 72%
    07:00 +13°C° 0.1 mm 6 mps 732 mmHg 67%
    08:00 +14°C° 0.1 mm 7 mps 733 mmHg 62%
    09:00 +15°C° 0.1 mm 8 mps 733 mmHg 57%
    10:00 +16°C° 0 mm 8 mps 733 mmHg 56%
    11:00 +16°C° 0 mm 9 mps 732 mmHg 54%
    12:00 +17°C° 0 mm 9 mps 732 mmHg 53%
    13:00 +17°C° 0.1 mm 9 mps 732 mmHg 55%
    14:00 +16°C° 0.1 mm 9 mps 732 mmHg 58%
    15:00 +16°C° 0.1 mm 9 mps 732 mmHg 61%
    16:00 +16°C° 0 mm 9 mps 731 mmHg 63%
    17:00 +15°C° 0 mm 9 mps 731 mmHg 66%
    18:00 +15°C° 0 mm 9 mps 731 mmHg 68%
    19:00 +14°C° 0.1 mm 7 mps 731 mmHg 70%
    20:00 +14°C° 0.1 mm 6 mps 731 mmHg 71%
    21:00 +14°C° 0.1 mm 4 mps 731 mmHg 73%
    22:00 +13°C° 0.2 mm 4 mps 731 mmHg 76%
    23:00 +13°C° 0.2 mm 3 mps 731 mmHg 79%

    Day after tomorrow, 1 June, Monday

    Time Temperature Precipitation Wind Pressure Humidity
    00:00 +13°C° 0.2 mm 3 mps 732 mmHg 82%
    01:00 +12°C° 0.6 mm 3 mps 732 mmHg 81%
    02:00 +11°C° 0.6 mm 3 mps 732 mmHg 81%
    03:00 +11°C° 0.6 mm 4 mps 732 mmHg 80%
    04:00 +10°C° 0.8 mm 3 mps 732 mmHg 83%
    05:00 +10°C° 0.8 mm 2 mps 732 mmHg 85%
    06:00 +10°C° 0.8 mm 2 mps 732 mmHg 87%
    07:00 +9°C° 2.1 mm 2 mps 732 mmHg 88%
    08:00 +9°C° 2.1 mm 3 mps 732 mmHg 90%
    09:00 +9°C° 2.1 mm 3 mps 732 mmHg 92%
    10:00 +9°C° 1.1 mm 3 mps 732 mmHg 92%
    11:00 +9°C° 1.1 mm 3 mps 731 mmHg 91%
    12:00 +9°C° 1.1 mm 3 mps 731 mmHg 91%
    13:00 +9°C° 0.2 mm 2 mps 731 mmHg 90%
    14:00 +9°C° 0.2 mm 2 mps 731 mmHg 89%
    15:00 +11°C° 0.2 mm 1 mps 731 mmHg 88%
    16:00 +11°C° 0 mm 1 mps 731 mmHg 87%
    17:00 +10°C° 0 mm 2 mps 732 mmHg 87%
    18:00 +10°C° 0 mm 2 mps 732 mmHg 86%
    19:00 +10°C° 0 mm 2 mps 732 mmHg 89%
    20:00 +9°C° 0 mm 2 mps 732 mmHg 91%
    21:00 +9°C° 0 mm 1 mps 733 mmHg 94%
    22:00 +9°C° 0 mm 1 mps 733 mmHg 94%
    23:00 +9°C° 0 mm 1 mps 733 mmHg 94%

    2 June, Tuesday

    Time Temperature Precipitation Wind Pressure Humidity
    00:00 +7°C° 0 mm 0 mps 733 mmHg 93%
    01:00 +8°C° 0 mm 1 mps 733 mmHg 93%
    02:00 +8°C° 0 mm 1 mps 732 mmHg 93%
    03:00 +8°C° 0 mm 1 mps 732 mmHg 94%
    04:00 +9°C° 0 mm 1 mps 732 mmHg 91%
    05:00 +9°C° 0 mm 1 mps 731 mmHg 89%
    06:00 +10°C° 0 mm 1 mps 731 mmHg 86%
    07:00 +9°C° 0.1 mm 2 mps 730 mmHg 87%
    08:00 +9°C° 0.1 mm 2 mps 730 mmHg 87%
    09:00 +9°C° 0.1 mm 2 mps 730 mmHg 88%
    10:00 +10°C° 0.6 mm 2 mps 729 mmHg 87%
    11:00 +10°C° 0.6 mm 2 mps 729 mmHg 86%
    12:00 +12°C° 0.6 mm 2 mps 729 mmHg 86%
    13:00 +13°C° 0.1 mm 2 mps 729 mmHg 84%
    14:00 +15°C° 0.1 mm 2 mps 729 mmHg 81%
    15:00 +16°C° 0.1 mm 2 mps 729 mmHg 79%
    16:00 +17°C° 0.1 mm 2 mps 729 mmHg 78%
    17:00 +18°C° 0.1 mm 2 mps 729 mmHg 78%
    18:00 +20°C° 0.1 mm 1 mps 730 mmHg 77%
    19:00 +18°C° 0.5 mm 2 mps 730 mmHg 80%
    20:00 +16°C° 0.5 mm 2 mps 730 mmHg 84%
    21:00 +14°C° 0.5 mm 3 mps 730 mmHg 87%
    22:00 +13°C° 0.3 mm 3 mps 730 mmHg 87%
    23:00 +13°C° 0.3 mm 3 mps 731 mmHg 88%

    3 June, Wednesday

    Time Temperature Precipitation Wind Pressure Humidity
    00:00 +13°C° 0.3 mm 3 mps 731 mmHg 88%
    01:00 +12°C° 0.2 mm 3 mps 732 mmHg 88%
    02:00 +12°C° 0.2 mm 4 mps 732 mmHg 88%
    03:00 +12°C° 0.2 mm 4 mps 732 mmHg 87%
    04:00 +13°C° 0 mm 4 mps 732 mmHg 85%
    05:00 +13°C° 0 mm 4 mps 733 mmHg 82%
    06:00 +14°C° 0 mm 4 mps 733 mmHg 79%
    07:00 +15°C° 0.1 mm 4 mps 733 mmHg 73%
    08:00 +16°C° 0.1 mm 3 mps 733 mmHg 68%
    09:00 +17°C° 0.1 mm 3 mps 733 mmHg 62%
    10:00 +18°C° 0 mm 3 mps 733 mmHg 60%
    11:00 +19°C° 0 mm 2 mps 733 mmHg 57%
    12:00 +19°C° 0 mm 2 mps 733 mmHg 54%
    13:00 +20°C° 0.1 mm 2 mps 733 mmHg 53%
    14:00 +20°C° 0.1 mm 2 mps 733 mmHg 52%
    15:00 +20°C° 0.1 mm 2 mps 733 mmHg 51%
    16:00 +20°C° 0.1 mm 2 mps 733 mmHg 55%
    17:00 +20°C° 0.1 mm 2 mps 733 mmHg 58%
    18:00 +19°C° 0.1 mm 2 mps 733 mmHg 61%
    19:00 +18°C° 0 mm 2 mps 733 mmHg 67%
    20:00 +16°C° 0 mm 1 mps 733 mmHg 72%
    21:00 +15°C° 0 mm 1 mps 733 mmHg 77%
    22:00 +14°C° 0 mm 1 mps 732 mmHg 80%
    23:00 +14°C° 0 mm 1 mps 732 mmHg 83%

    4 June, Thursday

    Time Temperature Precipitation Wind Pressure Humidity
    00:00 +13°C° 0 mm 1 mps 731 mmHg 86%
    01:00 +13°C° 0 mm 1 mps 731 mmHg 86%
    02:00 +13°C° 0 mm 1 mps 730 mmHg 86%
    03:00 +12°C° 0 mm 1 mps 730 mmHg 86%
    04:00 +13°C° 0.1 mm 2 mps 729 mmHg 85%
    05:00 +13°C° 0.1 mm 3 mps 729 mmHg 84%
    06:00 +13°C° 0.1 mm 3 mps 728 mmHg 83%
    07:00 +14°C° 0.4 mm 4 mps 728 mmHg 82%
    08:00 +14°C° 0.4 mm 5 mps 727 mmHg 82%
    09:00 +15°C° 0.4 mm 5 mps 727 mmHg 81%
    10:00 +15°C° 0.7 mm 6 mps 727 mmHg 81%
    11:00 +16°C° 0.7 mm 6 mps 727 mmHg 81%
    12:00 +16°C° 0.7 mm 7 mps 727 mmHg 81%
    13:00 +17°C° 0.1 mm 7 mps 727 mmHg 77%
    14:00 +17°C° 0.1 mm 7 mps 727 mmHg 73%
    15:00 +18°C° 0.1 mm 7 mps 727 mmHg 70%
    16:00 +18°C° 0.3 mm 7 mps 727 mmHg 71%
    17:00 +18°C° 0.3 mm 7 mps 727 mmHg 72%
    18:00 +19°C° 0.3 mm 6 mps 728 mmHg 73%
    19:00 +16°C° 0.2 mm 5 mps 728 mmHg 74%
    20:00 +15°C° 0.2 mm 4 mps 728 mmHg 74%
    21:00 +14°C° 0.2 mm 3 mps 728 mmHg 75%
    22:00 +13°C° 0 mm 3 mps 729 mmHg 76%
    23:00 +13°C° 0 mm 2 mps 729 mmHg 77%
    Show more